Home > Weather > Germany > Nürtingen > Past weeks

Flag for Germany Weather past 2 weeks in Nürtingen, Baden-Württemberg, Germany

48 °F

Drizzle. Broken clouds.

Feels Like: 44 °F
Forecast: 37 / 51 °F
Wind: 10 mph from Southwest

Location: Stuttgart-Echterdingen

Current Time: Dec 1, 2015 at 3:59:53 PM

Latest Report: Dec 1, 2015 at 3:20 PM

Visibility: 5 mi

Pressure: 30.36 "Hg

Humidity: 94%

Dew point: 46 °F

Location of NürtingenLocation

Historic Weather in Nürtingen — Graph


Nürtingen temperature yesterday

Maximum temperature yesterday: 50 °F (at 11:20 AM)
Minimum temperature yesterday: 48 °F (at 12:50 AM)
Average temperature yesterday: 49 °F

Past Weeks' High & Low Weather Summary

High61 °F (Nov 17, 10:50 PM)100% (Nov 20, 7:50 AM)30.33 "Hg (Nov 20, 7:50 AM)
Low23 °F (Nov 24, 2:20 AM)45% (Nov 16, 2:20 PM)29.36 "Hg (Nov 21, 2:50 PM)
Average42 °F84%29.97 "Hg
* Reported Nov 16 2:20 PM — Dec 1 2:50 PM, Nürtingen, Weather by CustomWeather, © 2015

Note: Actual official high and low records may vary slightly from our data, if they occured in-between our weather recording intervals... More about our weather records


Nürtingen weather history for previous 24 hours

Time TempWeatherWind HumidityBarometerVisibility
2:50 PM
Tue, Dec 1
48 °FDrizzle. Broken clouds.12 mph94%30.33 "Hg4 mi
2:20 PM48 °FDrizzle. Broken clouds.12 mph94%30.33 "Hg4 mi
1:50 PM48 °FLight rain. Broken clouds.13 mph94%30.33 "HgN/A
1:20 PM48 °FLight rain. Broken clouds.14 mph94%30.33 "HgN/A
12:50 PM48 °FDrizzle. Fog.14 mph94%30.33 "Hg3 mi
12:20 PM48 °FDrizzle. Fog.14 mph94%30.30 "Hg3 mi
11:50 AM48 °FLight rain. Broken clouds.13 mph94%30.30 "HgN/A
11:20 AM48 °FLight rain. Low clouds.12 mph94%30.30 "Hg4 mi
10:50 AM48 °FLight rain. More clouds than sun.13 mph94%30.30 "Hg4 mi
10:20 AM48 °FLight rain. Partly sunny.13 mph94%30.30 "HgN/A
9:50 AM48 °FLight rain. Partly sunny.13 mph87%30.30 "HgN/A
8:50 AM46 °FLight rain. More clouds than sun.13 mph93%30.27 "HgN/A
8:20 AM46 °FRain. More clouds than sun.10 mph93%30.27 "HgN/A
7:50 AM48 °FRain. Mostly cloudy.12 mph87%30.27 "HgN/A
7:20 AM46 °FRain. Overcast.13 mph93%30.24 "HgN/A
6:50 AM48 °FLight rain. Mostly cloudy.12 mph87%30.24 "HgN/A
6:20 AM48 °FLight rain. Passing clouds.13 mph87%30.24 "HgN/A
5:50 AM48 °FLight rain. Passing clouds.14 mph87%30.21 "HgN/A
5:20 AM48 °FCool.14 mph87%30.24 "HgN/A
4:50 AM48 °FLight rain. Passing clouds.13 mph87%30.21 "HgN/A
4:20 AM48 °FLight rain. Partly cloudy.13 mph87%30.21 "HgN/A
3:50 AM48 °FLight rain. Partly cloudy.16 mph87%30.21 "HgN/A
3:20 AM48 °FLight rain. Partly cloudy.16 mph87%30.21 "HgN/A
2:50 AM48 °FLight rain. Partly cloudy.13 mph87%30.18 "HgN/A
2:20 AM48 °FLight rain. Partly cloudy.13 mph87%30.18 "HgN/A
1:50 AM48 °FLight rain. Partly cloudy.15 mph87%30.18 "HgN/A
12:50 AM50 °FLight rain. Passing clouds.21 mph76%30.15 "HgN/A
11:50 PM
Mon, Nov 30
50 °FLight rain. Partly cloudy.24 mph76%30.12 "HgN/A
11:20 PM50 °FPartly cloudy.22 mph76%30.12 "HgN/A
10:50 PM50 °FPartly cloudy.26 mph76%30.09 "HgN/A
10:20 PM50 °FPartly cloudy.21 mph76%30.12 "HgN/A
9:50 PM50 °FPartly cloudy.21 mph76%30.12 "HgN/A
9:20 PM50 °FPartly cloudy.18 mph76%30.12 "HgN/A
8:50 PM50 °FLight rain. Partly cloudy.16 mph76%30.15 "HgN/A
8:20 PM50 °FLight rain. Partly cloudy.15 mph82%30.12 "HgN/A
7:50 PM50 °FPassing clouds.15 mph76%30.12 "HgN/A
7:20 PM50 °FLight rain. Partly cloudy.15 mph76%30.15 "HgN/A
6:50 PM50 °FPartly cloudy.14 mph76%30.15 "HgN/A
6:20 PM48 °FLight rain. Partly cloudy.10 mph87%30.15 "HgN/A
5:50 PM48 °FLight rain. Partly cloudy.14 mph82%30.18 "HgN/A
5:20 PM50 °FLight rain. Partly cloudy.14 mph76%30.15 "HgN/A
4:50 PM50 °FPartly cloudy.9 mph71%30.18 "HgN/A
4:20 PM48 °FLight rain. Broken clouds.10 mph82%30.18 "HgN/A
3:50 PM48 °FLight rain. Partly sunny.14 mph82%30.18 "HgN/A
3:20 PM50 °FLight rain. Partly sunny.14 mph76%30.18 "HgN/A
Weather by CustomWeather, © 2015

See weather overviewHow to use our weather pages